Louisa, VA

3:49 PM EST on December 05, 2019 (GMT -0500)
Louisa County-Freeman

Weather History for KLKU - November, 2019

Change the Weather History Date:

Monday, November 11, 2019

  Actual Average (KOMH) Record (KOMH)
Temperature  
Mean Temperature 53 °F -  
Max Temperature 68 °F 59 °F 79 °F (1949)
Min Temperature 38 °F 36 °F 20 °F (1957)
Degree Days  
Heating Degree Days 12    
Growing Degree Days 3 (Base 50)    
Moisture  
Dew Point 39 °F    
Average Humidity 58    
Maximum Humidity 93    
Minimum Humidity 33    
Precipitation  
Precipitation 0.00 in - - ()
Sea Level Pressure  
Sea Level Pressure 30.03 in    
Wind  
Wind Speed 5 mph ()    
Max Wind Speed 12 mph    
Max Gust Speed 16 mph    
Visibility 10.0 miles    
Events      
Averages and records for this station are not official NWS values.
T = Trace of Precipitation, MM = Missing Value Source: Averaged Metar Reports

Daily Weather History Graph

Daily Weather History Graph

Search for Another Location

Airport or City:

Astronomy

Nov. 11, 2019 Rise Set
Actual Time 6:48 AM EST 5:03 PM EST
Civil Twilight 6:20 AM EST 5:31 PM EST
Nautical Twilight 5:48 AM EST 6:02 PM EST
Astronomical Twilight 5:17 AM EST 6:33 PM EST
Moon 4:56 PM EST (11/11) 5:39 AM EST (11/11)
Length of Visible Light 11h 10m
Length of Day
10h 15m
Waxing Gibbous, 99% of the Moon is Illuminated
Nov 11
Waxing Gibbous
Nov 12
Full
Nov 19
Last Quarter
Nov 26
New
Dec 4
First Quarter

Hourly Weather History & Observations

Time (EST) Temp. Windchill Dew Point Humidity Pressure Visibility Wind Dir Wind Speed Gust Speed Precip Events Conditions
12:15 AM 49.3 °F - 37.4 °F 64% 30.09 in 10.0 mi SSW 5.8 mph - N/A   Clear
12:35 AM 48.9 °F - 37.4 °F 64% 30.09 in 10.0 mi SSW 4.6 mph - N/A   Clear
12:55 AM 47.5 °F - 37.4 °F 68% 30.09 in 10.0 mi SW 3.5 mph - N/A   Clear
1:15 AM 48.2 °F - 37.4 °F 66% 30.09 in 10.0 mi SW 4.6 mph - N/A   Clear
1:35 AM 47.7 °F - 37.4 °F 68% 30.09 in 10.0 mi SW 3.5 mph - N/A   Clear
1:55 AM 47.1 °F - 37.4 °F 69% 30.09 in 10.0 mi SW 4.6 mph - N/A   Clear
2:15 AM 46.6 °F - 37.4 °F 70% 30.09 in 10.0 mi SW 4.6 mph - N/A   Clear
2:35 AM 45.5 °F 42.5 °F 37.2 °F 73% 30.09 in 10.0 mi SW 5.8 mph - N/A   Clear
3:35 AM 44.8 °F 42.4 °F 37.6 °F 76% 30.10 in 10.0 mi SW 4.6 mph - N/A   Clear
3:55 AM 44.8 °F 42.4 °F 37.6 °F 76% 30.10 in 10.0 mi SW 4.6 mph - N/A   Clear
4:15 AM 44.8 °F 41.6 °F 37.6 °F 76% 30.11 in 10.0 mi SW 5.8 mph - N/A   Clear
4:35 AM 45.1 °F 42.0 °F 37.8 °F 75% 30.11 in 10.0 mi SW 5.8 mph - N/A   Clear
4:55 AM 45.0 °F 42.6 °F 37.8 °F 76% 30.11 in 10.0 mi SW 4.6 mph - N/A   Clear
5:15 AM 44.4 °F 41.2 °F 37.8 °F 77% 30.11 in 10.0 mi SW 5.8 mph - N/A   Clear
5:35 AM 42.8 °F 40.1 °F 38.1 °F 84% 30.12 in 10.0 mi SW 4.6 mph - N/A   Clear
5:55 AM 41.2 °F 38.2 °F 37.8 °F 88% 30.12 in 10.0 mi SW 4.6 mph - N/A   Clear
6:15 AM 39.7 °F 37.6 °F 37.0 °F 90% 30.12 in 10.0 mi SW 3.5 mph - N/A   Clear
6:35 AM 38.7 °F - 36.7 °F 93% 30.12 in 10.0 mi Calm Calm - N/A   Clear
6:55 AM 38.3 °F - 36.5 °F 93% 30.13 in 10.0 mi Calm Calm - N/A   Clear
7:15 AM 38.5 °F 36.1 °F 36.5 °F 93% 30.13 in 10.0 mi WSW 3.5 mph - N/A   Clear
7:35 AM 40.6 °F 38.6 °F 38.7 °F 93% 30.13 in 10.0 mi WSW 3.5 mph - N/A   Clear
7:55 AM 44.8 °F 43.3 °F 40.8 °F 86% 30.14 in 10.0 mi SW 3.5 mph - N/A   Clear
8:15 AM 46.9 °F - 39.6 °F 76% 30.14 in 10.0 mi South 4.6 mph - N/A   Clear
8:55 AM 48.6 °F - 40.1 °F 73% 30.14 in 10.0 mi SSE 3.5 mph - N/A   Clear
9:15 AM 50.7 °F - 40.5 °F 68% 30.13 in 10.0 mi SSW 4.6 mph - N/A   Clear
9:35 AM 53.1 °F - 40.6 °F 63% 30.13 in 10.0 mi SSW 5.8 mph - N/A   Clear
9:55 AM 54.9 °F - 41.4 °F 60% 30.12 in 10.0 mi South 3.5 mph - N/A   Clear
10:35 AM 57.6 °F - 42.3 °F 57% 30.12 in 10.0 mi SSW 6.9 mph - N/A   Clear
10:55 AM 59.9 °F - 42.4 °F 52% 30.11 in 10.0 mi SW 3.5 mph - N/A   Clear
11:15 AM 62.6 °F - 42.4 °F 48% 30.10 in 10.0 mi South 3.5 mph - N/A   Clear
11:35 AM 64.4 °F - 41.2 °F 43% 30.09 in 10.0 mi Calm Calm - N/A   Clear
11:55 AM 65.5 °F - 39.9 °F 39% 30.08 in 10.0 mi South 9.2 mph - N/A   Clear
12:15 PM 66.4 °F - 41.0 °F 40% 30.06 in 10.0 mi SSE 6.9 mph - N/A   Clear
12:35 PM 66.0 °F - 40.1 °F 39% 30.05 in 10.0 mi SSE 5.8 mph - N/A   Clear
12:55 PM 66.0 °F - 38.1 °F 36% 30.04 in 10.0 mi SSW 5.8 mph - N/A   Clear
1:35 PM 67.8 °F - 37.6 °F 33% 30.02 in 10.0 mi South 10.4 mph - N/A   Clear
1:55 PM 67.5 °F - 38.1 °F 34% 30.01 in 10.0 mi SSW 6.9 mph - N/A   Clear
2:15 PM 68.4 °F - 37.9 °F 33% 30.00 in 10.0 mi South 11.5 mph - N/A   Clear
2:35 PM 67.3 °F - 39.0 °F 35% 29.99 in 10.0 mi SSW 5.8 mph - N/A   Clear
2:55 PM 67.8 °F - 41.0 °F 38% 29.99 in 10.0 mi SSW 9.2 mph - N/A   Clear
3:15 PM 67.8 °F - 41.2 °F 38% 29.99 in 10.0 mi SSW 6.9 mph 16.1 mph N/A   Clear
3:35 PM 66.9 °F - 39.2 °F 36% 29.98 in 10.0 mi SSW 8.1 mph - N/A   Clear
4:55 PM 63.9 °F - 36.5 °F 36% 29.94 in 10.0 mi South 6.9 mph - N/A   Clear
5:15 PM 62.8 °F - 37.0 °F 38% 29.94 in 10.0 mi South 6.9 mph - N/A   Clear
5:35 PM 62.1 °F - 37.8 °F 41% 29.94 in 10.0 mi South 5.8 mph - N/A   Clear
6:15 PM 60.4 °F - 39.2 °F 45% 29.95 in 10.0 mi South 5.8 mph - N/A   Clear
6:35 PM 60.3 °F - 39.7 °F 47% 29.95 in 10.0 mi South 6.9 mph - N/A   Clear
6:55 PM 59.5 °F - 39.7 °F 48% 29.95 in - South 5.8 mph - N/A   Clear
7:15 PM 59.2 °F - 39.7 °F 49% 29.95 in 10.0 mi South 6.9 mph - N/A   Clear
7:35 PM 58.8 °F - 39.9 °F 50% 29.94 in 10.0 mi South 6.9 mph - N/A   Clear
7:55 PM 58.3 °F - 39.7 °F 50% 29.94 in 10.0 mi South 6.9 mph - N/A   Clear
8:15 PM 58.3 °F - 39.7 °F 50% 29.94 in 10.0 mi South 9.2 mph - N/A   Clear
8:35 PM 58.1 °F - 39.7 °F 50% 29.94 in 10.0 mi South 8.1 mph - N/A   Clear
8:55 PM 57.6 °F - 39.6 °F 51% 29.94 in 10.0 mi South 8.1 mph - N/A   Clear
9:15 PM 57.4 °F - 39.4 °F 51% 29.94 in 10.0 mi South 6.9 mph - N/A   Clear
9:35 PM 57.0 °F - 39.4 °F 52% 29.93 in 10.0 mi South 8.1 mph - N/A   Clear
9:55 PM 57.0 °F - 39.4 °F 52% 29.92 in 10.0 mi South 5.8 mph - N/A   Clear
10:15 PM 56.8 °F - 39.4 °F 52% 29.92 in 10.0 mi South 5.8 mph - N/A   Clear
10:35 PM 57.2 °F - 39.4 °F 51% 29.91 in 10.0 mi South 8.1 mph - N/A   Clear
10:55 PM 57.6 °F - 39.4 °F 51% 29.90 in 10.0 mi SSW 8.1 mph - N/A   Clear
11:15 PM 57.7 °F - 39.7 °F 51% 29.90 in 10.0 mi SSW 10.4 mph - N/A   Clear
11:35 PM 57.7 °F - 39.9 °F 51% 29.90 in 10.0 mi SSW 5.8 mph - N/A   Clear
11:55 PM 57.6 °F - 40.3 °F 53% 29.88 in 10.0 mi SSW 9.2 mph - N/A   Clear